sat.trackr.live / text

‹ back to catalog

STARLINK-31910

NORAD 59664 · 2024-084L

PAYLOAD ACTIVE UNKNOWN

§ Identity

Operator
Country
US
Launch date
2024-05-06
Launch site
AFETR
Launch vehicle
Mass (kg)
RCS (m²)

Purposes: comms

External: N2YO · Heavens-Above · Gunter

§ Orbital elements

Epoch: 2026-05-24T22:00:08.088192Z

Period
94.27 min
Inclination
43.0028°
Eccentricity
0.0001588
Mean motion
15.27595703 rev/d
Perigee alt
481.9 km
Apogee alt
484.1 km
Semi-major
6,861.1 km
B*
2.0767e-4
RAAN
331.0818°
Arg perigee
272.5871°
Mean anomaly
87.4799°
Rev number
11,603

§ Raw data

STARLINK-319101 59664U 24084L   26144.91676028  .00005459  00000+0  20767-3 0  99912 59664  43.0028 331.0818 0001588 272.5871  87.4799 15.27595703116036

JSON: /api/v1/satellites/59664 · /tle

For live sub-satellite position, see the globe view (requires WebGL).

§ Visibility from observer

Set your observer location to see the next 7 days of passes ≥ 10°. The values pass through the URL so the page stays shareable.

No JS? Fill the form by hand. The geolocation button needs JavaScript.